TimePST,TemperatureF,Dew PointF,Humidity,Sea Level PressureIn,VisibilityMPH,Wind Direction,Wind SpeedMPH,Gust SpeedMPH,PrecipitationIn,Events,Conditions,WindDirDegrees,DateUTC
12:51 AM,53.1,46.0,77,30.26,8.0,Calm,Calm,-,N/A,,Clear,0,2013-12-23 08:51:00
1:51 AM,53.1,43.0,69,30.26,9.0,NNE,3.5,-,N/A,,Clear,30,2013-12-23 09:51:00
2:51 AM,52.0,42.1,69,30.27,9.0,Calm,Calm,-,N/A,,Clear,0,2013-12-23 10:51:00
3:51 AM,51.1,41.0,68,30.26,9.0,Calm,Calm,-,N/A,,Clear,0,2013-12-23 11:51:00
4:51 AM,50.0,39.9,68,30.26,10.0,Calm,Calm,-,N/A,,Clear,0,2013-12-23 12:51:00
5:51 AM,50.0,39.0,66,30.26,10.0,Calm,Calm,-,N/A,,Clear,0,2013-12-23 13:51:00
6:51 AM,51.1,37.0,59,30.27,10.0,North,3.5,-,N/A,,Partly Cloudy,360,2013-12-23 14:51:00
7:51 AM,53.1,37.9,57,30.29,10.0,Calm,Calm,-,N/A,,Clear,0,2013-12-23 15:51:00
8:51 AM,59.0,37.9,46,30.30,8.0,Calm,Calm,-,N/A,,Clear,0,2013-12-23 16:51:00
9:51 AM,62.1,36.0,38,30.31,9.0,South,4.6,-,N/A,,Clear,190,2013-12-23 17:51:00
10:51 AM,66.0,36.0,33,30.29,10.0,Calm,Calm,-,N/A,,Clear,0,2013-12-23 18:51:00
11:51 AM,72.0,32.0,23,30.26,10.0,WNW,3.5,-,N/A,,Clear,300,2013-12-23 19:51:00
12:51 PM,70.0,45.0,41,30.24,10.0,WNW,6.9,-,N/A,,Clear,300,2013-12-23 20:51:00
1:51 PM,70.0,37.9,31,30.22,10.0,NW,10.4,-,N/A,,Clear,320,2013-12-23 21:51:00
2:51 PM,69.1,46.0,44,30.21,10.0,WNW,6.9,-,N/A,,Clear,300,2013-12-23 22:51:00
3:51 PM,70.0,37.0,30,30.20,9.0,NNW,10.4,-,N/A,,Clear,340,2013-12-23 23:51:00
4:51 PM,68.0,35.1,30,30.20,10.0,North,8.1,-,N/A,,Clear,350,2013-12-24 00:51:00
5:51 PM,66.0,36.0,33,30.20,10.0,North,5.8,-,N/A,,Clear,360,2013-12-24 01:51:00
6:51 PM,64.9,37.9,37,30.21,10.0,Calm,Calm,-,N/A,,Clear,0,2013-12-24 02:51:00
7:51 PM,64.0,39.0,40,30.20,10.0,Calm,Calm,-,N/A,,Clear,0,2013-12-24 03:51:00
8:51 PM,60.1,43.0,53,30.20,9.0,SSE,3.5,-,N/A,,Clear,160,2013-12-24 04:51:00
9:51 PM,57.9,41.0,53,30.20,9.0,Calm,Calm,-,N/A,,Clear,0,2013-12-24 05:51:00
10:51 PM,57.0,39.9,53,30.20,8.0,Calm,Calm,-,N/A,,Clear,0,2013-12-24 06:51:00
11:51 PM,55.0,39.9,57,30.19,10.0,Calm,Calm,-,N/A,,Clear,0,2013-12-24 07:51:00